SCP
0 0 0 0 0 0 0 0 0 0 0 0 0 0 0 0 0 0 0 0 0 0 0 0 0 0 0 0 0 0 0 0 0 0 0 0 0 0 0 0 0 0 0 0 0 0 0 0 0
0 0 0 0 0 0 0 0 0 0 0 0 0 0 0 0 0 0 0 0 0 0 0 0 0 0 0 0 0 0 0 0 0 0 0 0 0 0 0 0 0 0 0 0 0 0 0 0 0
0 0 0 0 0 0 0 0 0 0 0 0 0 0 0 0 0 0 0 0 0 0 0 0 0 0 0 0 0 0 0 0 0 0 0 0 0 0 0 0 0 0 0 0 0 0 0 0 0
0 0 0 0 0 0 0 0 0 0 0 0 0 0 0 0 0 0 0 0 0 0 0 0 0 0 0 0 0 0 0 0 0 0 0 0 0 0 0 0 0 0 0 0 0 0 0 0 0
0 0 0 0 0 0 0 0 0 0 0 0 0 0 0 0 0 0 0 0 0 0 0 0 0 0 0 0 0 0 0 0 0 0 0 0 0 0 0 0 0 0 0 0 0 0 0 0 0
0 0 0 0 0 0 0 0 0 0 0 0 0 0 0 0 0 0 0 0 0 0 0 0 0 0 0 0 0 0 0 0 0 0 0 0 0 0 0 0 0 0 0 0 0 0 0 0 0
0 0 0 0 0 0 0 0 0 0 0 0 0 0 0 0 0 0 0 0 0 0 0 0 0 0 0 0 0 0 0 0 0 0 0 0 0 0 0 0 0 0 0 0 0 0 0 0 0
0 0 0 0 0 0 0 0 0 0 0 0 0 0 0 0 0 0 0 0 0 0 0 0 0 0 0 0 0 0 0 0 0 0 0 0 0 0 0 0 0 0 0 0 0 0 0 0 0
0 0 0 0 0 0 0 0 0 0 0 0 0 0 0 0 0 0 0 0 0 0 0 0 0 0 0 0 0 0 0 0 0 0 0 0 0 0 0 0 0 0 0 0 0 0 0 0 0
0 0 0 0 0 0 0 0 0 0 0 0 0 0 0 0 0 0 0 0 0 0 0 0 0 0 0 0 0 0 0 0 0 0 0 0 0 0 0 0 0 0 0 0 0 0 0 0 0
0 0 0 0 0 0 0 0 0 0 0 0 0 0 0 0 0 0 0 0 0 0 0 0 0 0 0 0 0 0 0 0 0 0 0 0 0 0 0 0 0 0 0 0 0 0 0 0 0
0 0 0 0 0 0 0 0 0 0 0 0 0 0 0 0 0 0 0 0 0 0 0 0 0 0 0 0 0 0 0 0 0 0 0 0 0 0 0 0 0 0 0 0 0 0 0 0 0
0 0 0 0 0 0 0 0 0 0 0 0 0 0 0 0 0 0 0 0 0 0 0 0 0 0 0 0 0 0 0 0 0 0 0 0 0 0 0 0 0 0 0 0 0 0 0 0 0
0 0 0 0 0 0 0 0 0 0 0 0 0 0 0 0 0 0 0 0 0 0 0 0 0 0 0 0 0 0 0 0 0 0 0 0 0 0 0 0 0 0 0 0 0 0 0 0 0
0 0 0 0 0 0 0 0 0 0 0 0 0 0 0 0 0 0 0 0 0 0 0 0 0 0 0 0 0 0 0 0 0 0 0 0 0 0 0 0 0 0 0 0 0 0 0 0 0
0 0 0 0 0 0 0 0 0 0 0 0 0 0 0 0 0 0 0 0 0 0 0 0 0 0 0 0 0 0 0 0 0 0 0 0 0 0 0 0 0 0 0 0 0 0 0 0 0
0 0 0 0 0 0 0 0 0 0 0 0 0 0 0 0 0 0 0 0 0 0 0 0 0 0 0 0 0 0 0 0 0 0 0 0 0 0 0 0 0 0 0 0 0 0 0 0 0
0 0 0 0 0 0 0 0 0 0 0 0 0 0 0 0 0 0 0 0 0 0 0 0 0 0 0 0 0 0 0 0 0 0 0 0 0 0 0 0 0 0 0 0 0 0 0 0 0
0 0 0 0 0 0 0 0 0 0 0 0 0 0 0 0 0 0 0 0 0 0 0 0 0 0 0 0 0 0 0 0 0 0 0 0 0 0 0 0 0 0 0 0 0 0 0 0 0
0 0 0 0 0 0 0 0 0 0 0 0 0 0 0 0 0 0 0 0 0 0 0 0 0 0 0 0 0 0 0 0 0 0 0 0 0 0 0 0 0 0 0 0 0 0 0 0 0
0 0 0 0 0 0 0 0 0 0 0 0 0 0 0 0 0 0 0 0 0 0 0 0 0 0 0 0 0 0 0 0 0 0 0 0 0 0 0 0 0 0 0 0 0 0 0 0 0
0 0 0 0 0 0 0 0 0 0 0 0 0 0 0 0 0 0 0 0 0 0 0 0 0 0 0 0 0 0 0 0 0 0 0 0 0 0 0 0 0 0 0 0 0 0 0 0 0
0 0 0 0 0 0 0 0 0 0 0 0 0 0 0 0 0 0 0 0 0 0 0 0 0 0 0 0 0 0 0 0 0 0 0 0 0 0 0 0 0 0 0 0 0 0 0 0 0
0 0 0 0 0 0 0 0 0 0 0 0 0 0 0 0 0 0 0 0 0 0 1 1 1 1 0 0 0 0 0 0 0 0 0 0 0 0 0 0 0 0 0 0 0 0 0 0 0
0 0 0 0 0 0 0 0 0 0 0 0 0 0 0 0 0 0 0 0 0 1 1 1 1 1 1 1 1 1 0 0 0 0 0 0 0 0 0 0 0 0 0 0 0 0 0 0 0
0 0 0 0 0 0 0 0 0 0 0 0 0 0 0 0 0 0 0 0 0 1 1 1 1 1 1 1 1 1 1 0 0 0 0 0 0 0 0 0 0 0 0 0 0 0 0 0 0
0 0 0 0 0 0 0 0 0 0 0 0 0 0 0 0 0 0 0 0 0 0 1 1 1 1 1 1 1 1 1 0 0 0 0 0 0 0 0 0 0 0 0 0 0 0 0 0 0
0 0 0 0 0 0 0 0 0 0 0 0 0 0 0 0 0 0 0 0 0 0 1 1 1 1 1 1 1 1 1 0 0 0 0 0 0 0 0 0 0 0 0 0 0 0 0 0 0
0 0 0 0 0 0 0 0 0 0 0 0 0 0 0 0 0 0 0 0 0 0 1 1 1 1 1 1 1 1 1 1 0 0 0 0 0 0 0 0 0 0 0 0 0 0 0 0 0
0 0 0 0 0 0 0 0 0 0 0 0 0 0 0 0 0 0 0 0 1 1 1 1 1 1 1 1 1 1 1 1 1 0 0 0 0 0 0 0 0 0 0 0 0 0 0 0 0
Wind_Speed
7 5 2 1 1 3 2 3 5 5 5 7 9 10 9 7 4 4 2 8 8 7 5 8 10 11 11 11 11 11 11 11 12 11 11 12 12 12 12 12 11 11 11 11 11 11 11 10 10
5 4 1 1 3 3 2 4 7 7 8 9 10 10 9 7 6 7 5 8 9 8 6 7 11 11 10 10 10 10 11 11 11 11 11 11 11 11 11 11 10 10 10 9 9 10 10 9 9
5 3 0 1 1 3 3 4 8 9 8 7 6 6 6 5 5 5 6 10 8 7 5 7 12 11 10 10 10 10 10 11 11 11 10 10 10 10 10 10 9 9 9 8 8 8 9 9 8
2 1 1 2 1 1 5 6 8 10 8 8 8 7 5 4 5 7 10 11 9 6 5 7 11 11 11 10 10 10 11 11 11 10 10 9 9 9 9 8 8 8 8 8 8 7 7 8 8
1 1 2 2 1 2 6 8 8 9 6 7 9 7 4 3 9 12 12 11 9 6 5 6 11 11 11 10 10 11 11 11 10 10 9 9 8 8 8 7 7 7 7 7 7 7 7 7 7
1 2 3 2 3 3 5 8 9 10 10 9 9 7 3 4 9 10 10 9 9 8 5 5 10 11 11 10 10 10 10 10 10 10 9 8 8 7 7 6 6 7 7 7 7 7 7 7 7
2 1 1 2 4 4 5 7 8 9 9 7 7 6 3 4 7 9 9 8 7 7 6 4 4 7 9 10 10 10 10 10 10 9 8 8 7 6 6 6 6 6 7 8 8 7 7 7 6
3 2 1 1 4 3 5 6 7 9 7 8 6 7 5 6 7 8 8 7 6 6 5 4 4 4 4 5 9 10 10 10 9 9 8 8 7 6 6 6 6 6 7 7 8 8 8 7 7
2 3 1 2 4 4 6 8 5 6 8 6 5 6 8 10 9 9 7 5 5 5 4 4 4 4 4 4 6 8 9 9 8 7 8 6 3 3 3 5 6 6 7 7 7 8 8 7 7
4 3 5 5 5 6 7 9 6 6 8 8 9 9 10 9 10 9 7 6 5 5 5 5 5 5 4 4 3 2 3 3 3 3 3 2 2 2 4 5 6 6 6 7 7 7 7 6 3
4 5 3 2 4 6 7 6 5 9 5 9 13 12 10 9 8 8 7 6 6 6 5 5 5 6 5 3 3 2 2 2 2 3 3 2 2 1 2 1 2 2 3 3 4 4 3 2 2
3 4 3 2 3 5 6 6 6 7 7 11 14 14 11 9 8 7 7 6 5 5 5 5 5 5 4 3 3 3 2 2 2 2 3 2 2 1 1 1 1 1 1 1 1 2 2 2 3
3 3 2 3 4 5 7 8 7 6 10 13 14 12 10 9 7 6 6 6 6 5 4 4 4 4 4 3 3 3 3 3 2 2 2 3 3 2 2 2 2 2 1 2 2 2 2 2 3
3 3 3 3 3 6 9 6 6 7 13 13 13 10 10 9 8 6 6 5 6 6 5 4 5 4 4 3 3 3 2 2 2 2 2 2 2 2 2 2 2 2 2 2 2 2 2 2 2
1 2 1 2 3 4 8 4 5 10 13 12 11 10 10 9 8 8 8 7 7 6 5 5 5 5 4 4 3 3 2 3 2 2 2 2 2 2 2 2 2 2 1 1 1 1 1 1 1
3 3 0 3 3 4 7 4 6 10 12 10 10 10 8 8 9 9 9 7 7 6 6 5 5 5 4 4 3 2 2 3 2 2 2 2 2 2 2 2 1 1 1 1 1 1 1 1 1
3 1 2 3 3 4 5 4 7 9 11 10 9 9 8 7 7 8 9 8 8 7 7 6 5 5 4 4 3 3 2 2 2 2 2 2 2 2 2 1 1 1 1 1 1 1 1 1 1
3 2 2 3 3 4 4 4 8 10 10 10 9 8 8 8 8 8 8 9 8 7 7 6 5 5 4 3 3 2 2 1 1 2 2 2 2 2 2 1 1 1 1 0 0 1 0 1 1
4 2 2 4 3 4 5 6 9 10 8 9 8 8 8 8 7 7 8 8 7 6 7 6 6 5 4 2 2 2 2 2 1 2 2 3 2 2 2 1 1 1 1 1 1 1 0 1 0
2 1 2 3 2 4 4 4 7 9 11 12 12 11 10 8 6 7 7 7 7 8 7 6 6 5 4 3 3 2 2 2 2 1 1 2 2 2 2 2 1 1 1 1 1 1 0 1 0
2 3 4 3 0 3 4 2 2 3 4 7 9 9 10 11 11 10 9 8 7 8 8 8 7 6 5 4 3 2 2 1 1 1 1 1 2 2 1 2 1 1 2 1 1 1 1 1 1
4 4 3 1 2 1 3 1 5 4 3 5 8 9 9 10 10 10 10 10 9 9 7 6 6 6 5 5 4 4 4 3 3 2 1 1 1 1 2 2 2 2 1 1 1 2 1 2 1
4 1 1 0 1 2 2 3 6 2 4 6 7 10 11 11 11 12 12 12 10 8 7 6 6 5 5 5 5 5 3 2 2 1 2 1 0 1 1 1 2 2 1 2 2 1 1 1 2
1 4 5 5 5 2 3 2 5 4 8 6 6 9 10 11 11 11 10 9 8 8 7 7 6 5 5 5 5 5 5 4 3 2 2 1 0 0 0 1 1 1 1 1 2 2 2 1 1
3 6 5 6 5 4 2 1 6 7 6 8 8 8 8 8 9 9 9 8 8 8 8 7 7 6 5 5 5 5 5 5 5 4 3 2 1 1 1 1 1 1 1 1 1 1 1 1 1
2 8 7 3 4 4 3 2 6 5 3 3 5 7 8 7 8 8 9 9 9 10 9 8 8 7 7 6 6 4 4 3 3 3 3 3 2 2 2 1 1 1 2 1 1 0 1 1 1
2 2 7 7 1 1 3 3 6 3 3 2 3 4 6 6 7 7 7 8 9 9 9 9 9 8 7 7 6 5 4 3 3 3 3 2 2 2 2 2 1 1 1 1 1 0 1 1 1
4 5 5 5 3 1 3 2 4 3 2 0 3 4 4 5 6 6 6 7 8 8 8 7 7 7 6 6 6 5 4 4 3 3 2 2 2 2 2 1 1 1 1 1 1 1 1 1 1
2 2 5 4 5 6 2 6 5 6 4 4 3 4 5 6 6 6 5 6 6 6 6 6 5 5 4 5 5 5 4 4 4 3 3 3 2 2 2 2 2 2 2 2 2 2 1 1 2
3 3 5 4 3 4 4 7 4 2 2 4 3 2 4 6 6 6 5 4 4 5 5 6 5 5 4 4 4 5 4 4 4 4 3 4 3 2 2 2 2 2 2 2 2 3 2 2 3
Wind_Direction
174 164 161 218 40 43 66 82 96 87 62 61 73 82 80 63 90 126 159 147 139 144 148 141 135 129 126 125 124 120 119 119 119 120 119 123 126 128 128 128 132 140 144 147 150 152 154 156 158
166 168 188 11 67 72 61 90 88 96 120 107 81 77 74 67 81 109 124 145 141 142 141 140 137 132 130 129 129 127 124 125 125 125 125 126 128 129 131 133 134 139 145 149 152 157 159 161 160
178 186 188 36 64 134 121 108 102 97 105 97 87 62 69 97 106 122 146 141 132 133 139 144 139 136 133 132 133 131 130 129 130 130 130 130 132 134 134 136 139 143 147 150 152 158 163 165 164
162 144 33 53 44 158 127 125 113 105 82 79 92 70 60 93 121 128 135 133 130 132 139 146 141 139 135 131 133 133 134 134 134 134 134 135 137 140 141 143 145 149 154 155 156 161 170 172 172
125 88 40 43 53 95 112 119 113 106 104 93 94 93 77 74 109 123 131 134 133 137 143 147 143 141 138 135 133 136 137 139 139 139 139 140 142 146 150 153 156 160 165 166 167 171 172 176 180
81 76 71 72 82 78 108 119 104 99 108 107 102 103 93 114 116 131 132 135 138 140 145 142 143 143 142 140 139 139 141 144 145 145 146 147 148 151 158 163 169 173 174 175 175 179 181 186 189
133 95 138 133 104 94 108 110 111 114 116 120 122 102 121 129 136 138 135 135 137 138 139 140 146 147 146 145 146 144 145 149 152 152 154 156 159 162 166 173 181 187 190 191 188 187 190 195 200
169 101 4 92 115 115 124 111 119 119 114 127 118 125 155 170 149 137 133 133 136 140 143 144 148 147 150 149 151 155 157 158 161 163 166 170 174 178 181 186 190 194 199 201 197 197 202 204 207
151 90 184 196 150 152 133 113 106 96 105 110 103 128 152 150 131 124 122 121 135 146 159 155 159 164 162 161 166 166 167 170 172 175 177 181 185 189 195 202 201 202 205 206 201 203 208 213 217
129 134 209 200 168 150 137 131 131 101 96 97 97 112 133 134 128 131 138 143 149 160 168 167 169 175 178 176 166 174 177 175 178 181 182 179 185 205 205 207 210 210 206 205 208 211 214 217 220
148 177 205 168 161 135 127 133 118 120 117 142 141 144 144 137 136 141 152 159 165 168 168 169 172 173 179 177 163 176 178 174 184 188 185 177 177 203 216 201 224 218 207 209 211 217 223 220 216
148 213 181 180 142 122 134 130 115 133 152 151 147 150 150 148 154 158 162 167 167 157 165 167 161 159 168 162 166 167 167 170 184 189 176 165 167 176 181 189 207 203 199 194 198 210 226 230 225
167 202 139 135 113 125 120 127 121 132 137 140 145 148 154 160 165 167 164 161 157 154 161 163 152 150 155 152 166 156 167 168 173 168 173 166 165 173 181 197 192 195 189 187 192 212 216 224 232
189 161 160 140 117 122 121 124 113 144 141 143 147 155 163 167 165 156 156 156 161 161 163 160 155 152 147 144 151 150 152 150 142 160 173 164 163 169 175 177 178 195 197 191 192 207 205 227 231
78 90 2 146 130 126 107 96 146 153 145 149 156 162 168 171 166 164 167 164 165 162 157 159 157 149 145 144 150 141 149 145 156 168 162 151 148 154 161 167 185 204 193 174 165 175 174 225 240
12 56 343 262 159 140 110 165 178 155 150 160 166 168 168 171 171 169 166 162 163 156 151 162 152 144 145 138 136 136 146 145 157 165 158 154 148 145 149 154 192 197 160 151 159 166 187 236 246
12 346 262 274 192 148 126 174 180 166 160 168 172 171 166 169 171 169 167 163 162 158 153 152 144 146 150 146 140 137 140 140 148 153 148 150 139 147 141 142 176 154 133 154 192 163 185 213 246
267 244 261 254 239 145 136 172 173 178 172 175 177 174 169 172 181 173 165 161 159 157 152 152 148 151 145 135 115 102 112 131 142 154 157 156 154 151 145 150 164 141 128 138 184 183 212 214 222
219 208 223 251 215 131 152 171 183 186 176 180 181 178 177 183 182 166 162 162 156 157 154 155 154 159 144 134 138 137 158 166 170 180 170 162 164 162 153 155 160 149 156 193 188 162 222 317 97
198 227 247 275 208 129 158 182 190 191 190 186 182 184 182 179 165 169 167 168 168 170 166 162 165 166 163 163 162 160 158 170 171 172 170 177 175 179 168 164 165 166 158 166 172 135 142 285 101
272 215 228 222 37 73 103 356 255 212 198 192 185 182 179 178 177 177 177 184 176 177 177 173 173 170 171 163 138 116 94 79 90 130 182 202 181 172 157 148 147 153 152 178 201 180 176 229 295
273 246 205 179 83 303 127 174 274 218 216 200 191 187 186 184 180 180 181 185 188 186 179 171 170 171 172 159 153 153 154 167 192 184 186 189 163 148 141 139 133 144 154 178 207 176 186 175 227
242 237 100 59 107 49 36 125 271 211 221 216 197 194 191 186 183 185 187 188 186 179 171 169 165 168 166 162 162 158 160 173 171 150 143 161 177 159 150 140 138 155 172 191 202 196 199 189 190
220 35 22 42 63 29 254 155 265 219 210 208 205 196 190 186 185 185 188 183 178 173 169 169 168 172 169 167 163 161 163 159 146 152 163 182 209 251 223 145 150 170 187 200 206 202 199 201 190
60 76 27 2 9 266 273 117 251 242 214 193 195 192 185 182 180 178 180 177 174 172 173 171 170 176 178 173 173 171 170 164 166 174 180 181 196 222 236 204 190 193 210 205 185 185 216 194 185
204 134 148 195 232 281 335 241 265 261 222 185 173 173 172 169 171 173 176 175 176 175 173 174 176 183 185 182 180 175 169 169 175 179 178 188 204 213 212 205 208 208 206 199 172 193 229 208 218
155 164 164 139 138 360 308 304 321 340 34 99 137 149 165 168 167 171 173 173 173 174 179 178 178 184 189 185 172 171 170 173 182 181 177 188 203 209 202 203 208 205 198 202 182 216 255 251 246
149 150 88 104 134 280 302 288 249 268 315 317 146 151 162 166 164 171 174 175 177 177 177 173 173 177 179 176 174 175 175 177 180 173 180 194 213 214 196 210 211 208 209 198 175 211 253 261 281
12 52 97 112 148 155 221 270 236 204 202 174 166 158 155 162 166 166 171 178 177 166 162 164 169 166 165 169 170 169 175 178 176 178 187 191 212 205 202 205 201 211 217 210 194 220 224 229 265
157 161 134 139 221 166 164 259 278 190 186 151 147 165 163 167 167 161 153 139 146 159 161 162 164 161 164 170 161 170 169 168 173 187 196 190 195 196 204 208 214 220 223 216 211 230 237 235 240